Location: Deep Valley
(39.7548°N, 80.4695°W)
Time: 11:42:12
(UTC+00:00)

ISS - Pass Details

Date: 30 November 2020
Orbit: 418 x 419 km, 51.6° (Epoch: 18 January)

Event Time Altitude Azimuth Distance (km) Brightness Sun altitude
Rises 23:17:35 0° 309° (NW) 2,368 0.6 -15.0°
Reaches altitude 10° 23:20:56 10° 345° (NNW) 1,502 -1.0 -15.6°
Maximum altitude 23:22:09 12° 6° (N) 1,414 -1.3 -15.8°
Enters shadow 23:22:14 11° 7° (N) 1,415 -1.3 -15.8°
